Location: Unspecified
(33.9239°N, 118.0544°W)
Time: 19:16:07
(UTC-07:00)

Cosmos 1674 - Visible Passes

Search period start: 22 October 2014 00:00
Search period end: 01 November 2014 00:00
Orbit: 514 x 540 km, 82.5° (Epoch: 22 October)

Date Brightness Start Highest point End Pass type
(mag) Time Alt. Az. Time Alt. Az. Time Alt. Az.
22 Oct 3.6 05:53:23 10° S 05:57:12 55° E 06:01:05 10° NNE visible
23 Oct 3.8 05:42:05 10° SSE 05:45:52 49° E 05:49:41 10° NNE visible
24 Oct 4.0 05:30:47 10° SSE 05:34:30 43° E 05:38:17 10° NNE visible
25 Oct 4.2 05:19:28 10° SSE 05:23:08 39° E 05:26:50 10° NNE visible
26 Oct 4.4 05:08:10 10° SSE 05:11:45 35° E 05:15:22 10° NNE visible
27 Oct 4.6 04:56:52 10° SSE 05:00:21 31° E 05:03:53 10° NNE visible
27 Oct 4.5 06:34:22 10° WSW 06:36:22 14° WNW 06:38:23 10° NW visible
28 Oct 4.7 04:46:38 16° SE 04:48:57 28° E 04:52:21 10° NNE visible
28 Oct 4.4 06:22:36 10° WSW 06:24:54 15° WNW 06:27:13 10° NW visible
29 Oct 5.2 04:39:07 19° NE 04:39:07 19° NE 04:40:48 10° NE visible
29 Oct 4.5 06:14:31 15° NW 06:14:31 15° NW 06:16:00 10° NW visible
